This is the latest recevied weather packets stored in our database for station/object NY3Q. If no packets are shown the sender has not sent any weather packets the latest 10 day(s).
| Time | Temp. | Humidity | Pressure | Rain* | Wind** | Luminosity | Snow |
|---|---|---|---|---|---|---|---|
| 1777424172 | 21.67° C | 86% | 1016.8 hPa | 0 mm | - | 0 W/m² | - |
| 1777423870 | 21.67° C | 86% | 1016.7 hPa | 0 mm | - | 0 W/m² | - |
| 1777423566 | 21.67° C | 86% | 1016.8 hPa | 0 mm | - | 0 W/m² | - |
| 1777423262 | 21.67° C | 86% | 1016.3 hPa | 0 mm | - | 0 W/m² | - |
| 1777422962 | 21.67° C | 85% | 1016.4 hPa | 0 mm | - | 0 W/m² | - |
| 1777422657 | 21.67° C | 85% | 1016.2 hPa | 0 mm | - | 0 W/m² | - |
| 1777422353 | 22.22° C | 85% | 1016.3 hPa | 0 mm | - | 0 W/m² | - |
| 1777422048 | 22.22° C | 85% | 1016.2 hPa | 0 mm | - | 0 W/m² | - |
| 1777421742 | 22.22° C | 85% | 1016.3 hPa | 0 mm | - | 0 W/m² | - |
| 1777421439 | 22.22° C | 84% | 1016.2 hPa | 0 mm | - | 1 W/m² | - |
| 1777421135 | 22.22° C | 84% | 1016 hPa | 0 mm | - | 1 W/m² | - |
| 1777420832 | 22.22° C | 83% | 1016.3 hPa | 0 mm | - | 3 W/m² | - |
| 1777420527 | 22.22° C | 83% | 1016.6 hPa | 0 mm | - | 5 W/m² | - |
| 1777420224 | 22.78° C | 82% | 1016.7 hPa | 0 mm | - | 7 W/m² | - |
| 1777419919 | 22.78° C | 82% | 1016.7 hPa | 0 mm | - | 11 W/m² | - |
| 1777419617 | 22.78° C | 81% | 1016.7 hPa | 0 mm | - | 14 W/m² | - |
| 1777419316 | 23.33° C | 81% | 1017.1 hPa | 0 mm | - | 19 W/m² | - |
| 1777419015 | 23.33° C | 80% | 1017.1 hPa | 0 mm | - | 27 W/m² | - |
| 1777418714 | 23.33° C | 80% | 1017.1 hPa | 0 mm | - | 34 W/m² | - |
| 1777418411 | 23.33° C | 80% | 1017.4 hPa | 0 mm | - | 36 W/m² | - |
| 1777418107 | 23.33° C | 80% | 1017.7 hPa | 0 mm | - | 37 W/m² | - |
| 1777417803 | 23.33° C | 79% | 1017.9 hPa | 0 mm | - | 41 W/m² | - |
| 1777417498 | 23.89° C | 79% | 1017.8 hPa | 0 mm | - | 49 W/m² | - |
| 1777417195 | 23.89° C | 78% | 1017.8 hPa | 0 mm | - | 69 W/m² | - |
| 1777416891 | 23.89° C | 78% | 1017.8 hPa | 0 mm | - | 76 W/m² | - |
* Rain latest hour (hover to see other rain measurements)
** Current wind speed in m/s (hover to see current wind gust speed)